Wind_Speed
55 55 55 58 55 59 57 58 59 63 66 68 68 69 69 70 69 69 71 74 78 80 86 88 90 91 89 88 97 84 73 66 65 67 70 73 73 75
59 58 58 58 59 59 55 54 55 58 59 62 68 69 70 71 72 74 77 78 82 86 90 92 94 93 97 93 80 75 71 70 72 73 76 79 79 82
58 58 58 59 54 56 57 57 57 59 59 65 70 73 74 75 77 79 81 84 88 91 93 96 99 96 86 79 78 78 79 80 80 83 84 86 87 90
58 57 57 57 56 54 55 57 61 61 63 67 72 75 77 79 81 85 88 92 92 96 98 96 87 84 81 84 87 87 87 89 91 94 95 97 100 103
52 51 54 57 56 59 58 60 63 66 69 71 74 76 77 78 79 83 97 95 92 88 84 82 85 87 90 92 93 95 98 100 102 104 105 106 107 108
50 53 54 57 60 62 63 66 69 71 72 74 75 78 79 84 93 94 84 81 81 83 85 89 91 94 97 100 102 104 105 106 107 109 109 110 110 112
57 58 60 62 66 67 68 69 70 72 74 78 80 84 87 81 78 78 78 82 83 87 91 94 98 102 103 106 108 108 108 106 106 108 111 113 116 112
67 68 69 67 68 68 69 69 72 77 82 83 71 69 70 73 76 77 81 84 90 92 95 100 103 105 107 110 111 113 115 116 117 117 119 120 118 117
59 60 64 68 70 71 71 68 65 65 67 69 72 74 77 80 83 89 93 94 94 95 97 103 106 108 110 114 115 115 117 118 120 121 121 120 121 120
58 58 57 58 59 58 59 62 65 68 72 75 78 81 83 88 92 93 92 92 96 99 103 105 107 106 108 111 112 114 115 113 112 117 118 120 124 127
56 59 60 61 62 64 65 67 69 71 74 78 82 86 91 91 94 94 97 97 104 107 105 105 107 107 111 112 113 111 113 119 118 121 123 128 133 134
56 60 62 63 65 66 67 69 72 74 79 86 88 87 92 89 97 97 102 107 109 111 111 111 113 114 108 113 117 124 125 125 124 128 129 132 132 128
63 65 67 69 71 70 72 77 81 84 85 88 86 90 94 94 102 105 111 115 118 117 115 116 115 117 119 119 121 125 122 122 127 130 128 126 124 122
62 65 68 69 71 75 78 80 80 82 88 92 94 97 98 105 110 109 119 121 123 123 118 118 122 125 123 123 121 121 121 126 126 120 116 114 112 112
65 65 69 74 78 80 82 87 90 92 98 95 98 97 101 110 110 118 124 126 128 126 126 126 126 127 128 125 119 117 115 119 115 111 106 107 102 98
73 76 81 81 82 86 90 90 96 94 95 97 100 103 106 113 119 124 126 128 128 132 127 128 127 130 127 127 121 112 116 108 101 100 95 94 87 82
71 78 82 82 86 86 88 90 94 97 101 105 107 115 116 121 124 121 123 125 126 127 131 133 134 130 129 123 114 117 107 103 95 86 81 82 79 76
78 87 88 94 94 94 98 99 105 108 112 115 120 121 123 116 119 120 122 125 129 131 133 134 129 129 129 127 112 103 105 95 88 81 78 77 75 69
87 92 97 101 101 101 102 107 111 116 122 120 118 118 117 117 118 119 124 129 129 130 131 126 125 120 115 111 103 92 89 86 83 81 78 72 67 63
96 100 100 106 106 107 110 115 119 123 122 117 116 118 118 117 120 127 128 130 131 129 125 122 117 113 108 99 90 85 82 81 79 77 71 65 61 57
104 104 107 109 108 114 120 117 115 112 112 112 114 116 120 122 125 126 128 127 129 123 117 115 112 106 100 92 87 82 78 76 74 70 64 59 56 53
109 109 111 117 117 109 107 108 109 108 106 107 110 112 115 119 123 124 125 124 119 116 111 110 103 96 92 87 84 80 77 73 68 63 59 55 51 48
109 117 116 107 103 105 106 106 103 102 104 109 113 116 118 121 121 115 117 114 111 108 107 99 92 91 87 83 78 75 73 68 62 59 54 50 47 43
Wind_Direction
264 263 263 268 267 274 275 271 273 271 272 272 273 276 283 289 290 290 291 293 297 300 300 302 304 303 300 296 300 297 292 289 287 288 289 290 290 289
258 261 264 268 270 274 279 281 279 277 282 281 286 291 293 294 296 297 297 298 299 299 299 300 299 296 296 297 294 292 292 292 291 290 289 288 288 289
255 261 264 272 275 280 283 284 284 285 288 289 291 292 293 295 295 295 297 298 298 298 295 293 294 295 294 293 293 292 292 292 292 290 290 290 291 291
257 264 266 272 277 279 280 280 282 288 289 288 289 291 293 293 296 297 296 296 295 291 292 293 292 293 294 294 293 293 294 294 293 292 291 290 290 291
264 269 267 266 270 277 284 283 283 283 283 285 288 290 292 290 287 285 290 290 292 292 294 294 295 294 294 293 293 292 292 293 294 294 294 294 294 293
267 268 274 276 275 275 274 274 275 279 285 287 287 285 281 280 283 289 288 292 294 295 295 294 293 292 291 290 292 293 293 294 294 294 293 292 291 291
266 268 268 268 268 271 274 280 283 284 281 278 277 278 281 283 283 288 292 292 293 293 293 292 292 295 296 294 295 295 295 293 292 290 289 289 289 288
256 259 267 277 279 279 276 273 272 273 272 277 279 281 283 290 291 292 295 294 293 295 298 297 296 294 295 296 295 293 292 292 293 292 291 292 289 291
261 263 264 265 266 268 271 270 271 271 273 277 282 283 285 289 292 296 293 296 296 297 297 298 298 297 295 294 294 293 293 293 292 292 292 291 291 292
252 255 259 261 264 269 275 278 279 280 282 285 287 289 290 292 294 298 300 298 297 299 298 295 294 296 297 297 295 294 295 294 294 295 295 294 292 290
267 268 270 274 277 279 281 283 284 287 289 290 290 289 289 291 301 298 302 303 302 303 302 299 298 298 300 299 297 297 298 298 296 298 298 297 292 290
269 273 275 276 278 280 283 283 285 287 289 289 286 290 297 290 304 306 305 303 304 306 304 302 300 302 300 301 300 300 300 300 301 301 298 294 291 291
272 273 274 276 278 280 282 284 287 289 293 297 292 293 301 301 306 304 303 305 302 304 302 300 300 302 301 301 301 301 301 301 300 298 297 296 297 294
283 280 275 277 281 283 286 288 289 293 298 299 299 299 298 298 301 299 305 301 300 301 300 300 301 302 301 302 302 302 303 303 300 298 300 297 295 293
293 283 281 283 283 287 293 294 293 298 298 299 296 295 297 300 298 298 299 299 298 301 304 304 305 304 304 305 304 305 303 300 303 301 299 297 295 295
296 296 300 300 297 293 293 291 295 298 295 296 296 295 296 296 297 295 295 296 300 301 305 306 306 306 307 306 306 305 304 304 301 300 299 296 296 295
291 291 293 289 289 291 291 290 294 295 296 295 294 297 294 293 293 293 295 297 300 305 307 307 308 307 307 307 307 308 307 305 305 302 302 302 300 299
284 291 289 290 289 288 289 290 292 294 296 295 295 292 296 296 297 296 297 299 304 304 306 307 307 307 308 308 309 310 308 308 307 308 307 306 305 303
282 287 290 295 293 290 290 293 293 293 295 295 292 293 295 294 296 299 298 299 303 306 308 307 308 306 308 310 309 309 309 310 311 311 310 308 307 306
282 286 288 292 292 293 292 293 292 291 292 292 293 294 296 297 297 299 299 301 303 307 308 310 307 310 311 309 310 312 313 313 311 311 310 309 309 308
285 287 289 291 289 290 289 289 289 290 291 292 294 295 294 295 297 299 302 304 306 308 308 308 310 312 311 313 315 315 315 314 313 312 312 312 312 310
285 288 288 289 290 288 288 289 291 292 294 296 297 296 298 299 301 301 304 304 307 307 309 310 311 312 315 315 316 315 315 315 314 314 314 314 313 311
285 286 288 288 288 288 289 291 293 294 295 296 298 300 302 301 303 303 304 308 307 308 309 311 314 316 316 316 315 315 315 315 315 316 315 315 313 312
Height
10617 10617 10618 10618 10616 10617 10617 10617 10618 10616 10614 10608 10605 10602 10603 10597 10592 10587 10584 10580 10575 10569 10564 10557 10550 10544 10539 10533 10527 10521 10516 10513 10511 10507 10503 10498 10493 10488
10606 10604 10604 10605 10604 10605 10606 10606 10606 10605 10602 10593 10588 10588 10583 10580 10574 10569 10564 10562 10557 10552 10545 10538 10532 10527 10521 10514 10508 10503 10498 10494 10491 10487 10483 10478 10472 10466
10595 10594 10594 10594 10595 10594 10593 10591 10590 10588 10586 10579 10573 10570 10567 10564 10560 10555 10549 10545 10541 10535 10528 10522 10516 10509 10501 10494 10488 10483 10479 10475 10470 10465 10460 10454 10449 10443
10584 10588 10586 10584 10584 10582 10580 10578 10576 10572 10570 10566 10561 10557 10554 10548 10541 10535 10531 10527 10524 10516 10509 10502 10494 10488 10481 10474 10467 10461 10457 10453 10447 10440 10433 10427 10420 10415
10575 10576 10576 10573 10572 10570 10566 10563 10561 10558 10555 10553 10548 10543 10536 10532 10525 10519 10512 10507 10501 10492 10485 10478 10472 10467 10460 10451 10445 10439 10433 10428 10421 10412 10405 10397 10390 10383
10564 10563 10561 10559 10558 10556 10553 10551 10548 10545 10541 10536 10532 10528 10523 10517 10509 10504 10495 10488 10482 10475 10467 10460 10453 10445 10436 10428 10421 10415 10406 10401 10392 10383 10376 10368 10362 10354
10551 10550 10549 10548 10545 10542 10539 10536 10532 10528 10526 10523 10520 10514 10507 10500 10493 10487 10479 10469 10463 10455 10446 10436 10431 10421 10411 10400 10393 10383 10375 10369 10361 10353 10346 10339 10331 10323
10541 10538 10536 10531 10529 10527 10524 10522 10519 10516 10511 10507 10500 10494 10488 10480 10473 10468 10460 10451 10445 10437 10425 10412 10405 10396 10384 10372 10363 10350 10341 10334 10327 10318 10309 10301 10292 10283
10527 10525 10524 10521 10518 10515 10511 10507 10502 10496 10491 10486 10480 10474 10466 10460 10453 10444 10438 10429 10421 10414 10404 10392 10379 10369 10356 10343 10330 10318 10309 10300 10292 10283 10273 10263 10252 10239
10515 10513 10510 10506 10502 10499 10494 10489 10484 10479 10473 10467 10461 10454 10446 10439 10431 10423 10414 10404 10394 10388 10380 10371 10359 10349 10335 10320 10305 10289 10278 10267 10257 10245 10232 10217 10204 10194
10502 10498 10494 10490 10486 10482 10476 10471 10465 10459 10452 10446 10441 10433 10425 10416 10408 10399 10389 10379 10370 10357 10350 10340 10331 10324 10311 10294 10276 10257 10244 10232 10220 10206 10188 10171 10152 10141
10484 10482 10478 10474 10470 10465 10459 10453 10447 10441 10435 10426 10420 10411 10402 10393 10383 10371 10362 10355 10343 10330 10318 10310 10296 10285 10283 10267 10248 10229 10214 10197 10183 10162 10144 10124 10105 10095
10471 10466 10462 10457 10453 10447 10441 10435 10428 10420 10413 10404 10394 10386 10377 10366 10356 10347 10337 10324 10314 10303 10291 10282 10269 10255 10243 10235 10220 10193 10179 10167 10146 10123 10103 10082 10064 10042
10453 10447 10442 10438 10434 10428 10422 10415 10407 10399 10391 10383 10373 10363 10351 10341 10331 10320 10307 10295 10287 10275 10263 10250 10238 10222 10205 10195 10182 10166 10149 10120 10094 10084 10072 10049 10026 10009
10432 10429 10424 10419 10414 10406 10398 10391 10383 10378 10369 10359 10351 10340 10330 10318 10307 10296 10284 10268 10256 10244 10233 10217 10200 10183 10164 10150 10139 10127 10105 10090 10063 10044 10030 10009 9997 9986
10407 10403 10398 10393 10387 10382 10377 10369 10359 10355 10345 10337 10327 10317 10308 10299 10285 10271 10257 10243 10228 10210 10198 10184 10165 10147 10131 10108 10092 10087 10058 10041 10037 10015 9999 9975 9970 9959
10387 10384 10382 10377 10372 10365 10357 10350 10341 10332 10324 10315 10306 10297 10285 10274 10261 10246 10233 10218 10204 10191 10172 10150 10131 10111 10092 10075 10066 10037 10023 10008 9993 9985 9969 9949 9940 9930
10375 10366 10361 10356 10352 10346 10337 10330 10321 10312 10303 10294 10282 10272 10260 10245 10232 10218 10206 10190 10173 10158 10146 10129 10113 10092 10065 10040 10024 10019 9985 9978 9962 9951 9940 9926 9912 9904
10358 10353 10343 10334 10330 10322 10315 10306 10296 10287 10278 10266 10252 10242 10232 10221 10206 10192 10176 10163 10142 10128 10113 10097 10081 10063 10044 10025 10001 9994 9971 9953 9938 9926 9914 9903 9892 9882
10336 10332 10322 10313 10305 10296 10287 10277 10270 10259 10248 10238 10227 10216 10205 10192 10177 10164 10149 10136 10117 10099 10082 10065 10049 10033 10014 9996 9982 9965 9950 9934 9920 9907 9894 9884 9873 9865
10313 10307 10300 10293 10283 10275 10266 10253 10242 10232 10223 10213 10202 10191 10179 10165 10151 10137 10121 10104 10089 10072 10057 10039 10023 10007 9987 9967 9953 9940 9930 9917 9902 9888 9877 9867 9858 9849
10290 10281 10274 10265 10257 10245 10236 10226 10218 10209 10200 10190 10178 10164 10152 10139 10124 10109 10094 10076 10061 10046 10031 10015 10000 9983 9964 9946 9935 9921 9908 9897 9884 9871 9861 9852 9845 9837
10263 10255 10244 10235 10227 10218 10209 10201 10193 10184 10174 10162 10149 10136 10123 10110 10096 10082 10066 10053 10036 10023 10006 9992 9977 9958 9942 9928 9916 9904 9890 9879 9868 9856 9847 9841 9833 9827